User: anonymous   Login
Location: Unspecified
(0.0000°N, 0.0000°E)
Time: 21:40:49
(UTC+00:00)
Language:

COSMOS 2501 (GLONASS) - Orbit

View from above orbital plane
View from above orbital plane
View from above satellite
View from above satellite

Ground track
Ground track

The orbit data is extracted from the following two-line orbital elements,

1 40315U 14075A   19076.74746113  .00000060  00000-0  00000+0 0  9991
2 40315  64.0886 282.9101 0014563 204.5625 109.7261  2.13098593 33410
Epoch (UTC): 17 March 2019 17:56:20
Eccentricity: 0.0014563
inclination: 64.0886°
perigee height: 19093 km
apogee height: 19167 km
right ascension of ascending node: 282.9101°
argument of perigee: 204.5625°
revolutions per day: 2.13098593
mean anomaly at epoch: 109.7261°
orbit number at epoch: 3341

The dashed part of the orbit path shows where the satellite is in the earth's shadow,  

DLR